[[{"header":{"parameterUnit":"m.s-1","parameterCategory":2,"la1":30.2991,"la2":30.254,"lo1":-89.0895,"lo2":-89.0444,"dy":0.0017,"dx":0.0017,"nx":28,"ny":28,"refTime":"2025-11-17T03:00:00:Z","depth":"0","parameterNumber":2,"parameterNumberName":"U-component_of_CURRENTS"},"data":[0,0,0,0,0,0,0,0,0,0,0,0,0,0,0,0,0,0,0,0,0,0,0,0,0,0,0,0,0,0,0,0,0,0,0,0,0,0,0,0,0,0,0,0,0,0,0,0,0,0,0,0,0,0,0,0,0,0,-0.2997,-0.2995,0,-0.2855,-0.2853,-0.2852,-0.2777,-0.2777,-0.2777,-0.2777,-0.2509,-0.2502,-0.2495,0,0,0,0,0,0,0,0,0,0,0,0,0,-0.3109,-0.3108,-0.2997,-0.2995,-0.2993,-0.2855,-0.2853,-0.2851,-0.2777,-0.2777,-0.2777,-0.2777,-0.2511,-0.2503,-0.2495,0,0,0,0,0,0,0,0,0,0,0,0,0,-0.3023,-0.3108,-0.2997,-0.294,-0.2934,-0.2856,-0.2853,-0.2851,-0.2777,-0.2777,-0.2777,-0.2777,-0.2514,-0.2504,-0.2493,-0.2429,0,0,-0.2461,-0.2456,0,0,0,0,0,0,0,0,-0.3028,-0.3019,-0.295,-0.2944,-0.2937,-0.2834,-0.2795,-0.2704,-0.2777,-0.2836,-0.2777,-0.2777,-0.2607,-0.2588,-0.2563,-0.2417,-0.2405,-0.246,-0.2454,-0.2449,-0.2446,0,0,0,0,0,0,0,-0.3034,-0.3024,-0.294,-0.2949,-0.294,-0.289,-0.2878,-0.2777,-0.2721,-0.2831,-0.2825,-0.2811,-0.2602,-0.2573,-0.2556,-0.2401,-0.246,-0.2451,-0.2444,-0.244,-0.2206,-0.2206,0,0,0,0,0,0,-0.3058,-0.303,-0.2944,-0.2936,-0.2984,-0.2888,-0.2875,-0.2867,-0.2724,-0.2704,-0.2811,-0.2808,-0.2592,-0.2568,-0.2546,-0.2412,-0.2449,-0.2439,-0.2433,-0.2206,-0.2206,-0.2206,0,0,0,0,0,0,-0.3061,-0.3052,-0.295,-0.298,-0.2963,-0.2887,-0.2878,-0.2864,-0.2837,-0.2711,-0.2688,-0.2798,-0.2591,-0.2561,-0.2464,-0.2403,-0.2434,-0.2425,-0.2205,-0.2206,-0.2206,-0.2175,0,0,0,0,0,0,-0.3065,-0.3054,-0.3052,-0.2982,-0.2963,-0.29,-0.2877,-0.2861,-0.2828,-0.2823,-0.2691,-0.2667,-0.2588,-0.2481,-0.2454,-0.2389,-0.2416,-0.2205,-0.2205,-0.2206,-0.2176,-0.2174,-0.2172,0,0,0,0,0,-0.307,-0.3072,-0.3053,-0.3042,-0.2964,-0.29,-0.2885,-0.2829,-0.2828,-0.2807,-0.2734,-0.2671,-0.2464,-0.2472,-0.244,-0.237,-0.2205,-0.2205,-0.2206,-0.2176,-0.2174,-0.2172,0,0,0,0,0,0,-0.3123,-0.3062,-0.304,-0.3025,-0.2964,-0.2887,-0.2871,-0.2837,-0.2766,-0.2764,-0.2659,-0.2628,-0.2526,-0.2473,-0.2485,-0.2316,-0.2329,-0.2323,-0.2317,-0.2314,-0.2313,-0.2316,-0.2407,0,0,0,0,0,-0.3134,-0.3113,-0.3048,-0.303,-0.3013,-0.2946,-0.2915,-0.2875,-0.2806,-0.2776,-0.2681,-0.2593,-0.2502,-0.2432,-0.2354,-0.2244,-0.2193,-0.219,-0.2188,-0.2187,-0.2175,-0.2056,-0.204,-0.2207,-0.2207,-0.2207,0,0,-0.3147,-0.3112,-0.3098,-0.3038,-0.2997,-0.2939,-0.2927,-0.2885,-0.2815,-0.2754,-0.2641,-0.2584,-0.2483,-0.2368,-0.2316,-0.2307,-0.2119,-0.2187,-0.2185,-0.2174,-0.2054,-0.2037,-0.2022,-0.2207,-0.2207,-0.2207,0,0,-0.3146,-0.3139,-0.3111,-0.3064,-0.3001,-0.2951,-0.2944,-0.2862,-0.2813,-0.2709,-0.2656,-0.2574,-0.2421,-0.2331,-0.2269,-0.2216,-0.2131,-0.2195,-0.2148,-0.2032,-0.2016,-0.2001,-0.1934,-0.1914,-0.2171,-0.2171,-0.2171,0,-0.3166,-0.3098,-0.3092,-0.3045,-0.298,-0.2958,-0.2884,-0.2841,-0.2727,-0.2657,-0.2673,-0.246,-0.2396,-0.2229,-0.2228,-0.2201,-0.2144,-0.2152,-0.2024,-0.2009,-0.1994,-0.1929,-0.1906,-0.217,-0.217,-0.217,-0.217,0,-0.3123,-0.3061,-0.3048,-0.2965,-0.2915,-0.285,-0.2785,-0.2726,-0.2674,-0.2599,-0.2455,-0.2382,-0.2245,-0.2223,-0.2204,-0.2059,-0.2057,-0.2048,-0.2018,-0.1974,-0.191,-0.1887,-0.2168,-0.2168,-0.2169,-0.2169,0,0,-0.3142,-0.3033,-0.3015,-0.293,-0.2849,-0.2787,-0.2704,-0.2571,-0.2485,-0.241,-0.2264,-0.2166,-0.2145,-0.2082,-0.2043,-0.196,-0.1838,-0.1964,-0.1959,-0.188,-0.16,-0.1605,-0.1581,-0.1789,-0.1785,-0.1781,-0.1604,0,-0.3077,-0.2953,-0.2913,-0.276,-0.2671,-0.2618,-0.2523,-0.2423,-0.2347,-0.2222,-0.2153,-0.2032,-0.2083,-0.2019,-0.1944,-0.1868,-0.1773,-0.1889,-0.1671,-0.1666,-0.1657,-0.1552,-0.1546,-0.1386,-0.1581,-0.1577,-0.1574,0,-0.3003,-0.2912,-0.2763,-0.2585,-0.2548,-0.2473,-0.2296,-0.2213,-0.2084,-0.2025,-0.1927,-0.1888,-0.1774,-0.1833,-0.1657,-0.1724,-0.1661,-0.1615,-0.1605,-0.1599,-0.1625,-0.1459,-0.1336,-0.1326,-0.1539,-0.1541,-0.1544,0,-0.2935,-0.2781,-0.2641,-0.2587,-0.2427,-0.2343,-0.2263,-0.2139,-0.2024,-0.1914,-0.1836,-0.1714,-0.1648,-0.1546,-0.1521,-0.1553,-0.134,-0.1356,-0.129,-0.1291,-0.1239,-0.1243,-0.1059,-0.1192,-0.1192,-0.1192,-0.1193,0,-0.2821,-0.2696,-0.2604,-0.2514,-0.2305,-0.2277,-0.2071,-0.1993,-0.188,-0.1727,-0.1743,-0.1641,-0.1574,-0.1474,-0.1438,-0.1309,-0.1261,-0.1251,-0.1219,-0.1236,-0.1241,-0.1196,-0.1232,-0.1186,-0.1187,-0.1189,-0.119,0,-0.2686,-0.266,-0.2468,-0.2319,-0.2251,-0.2109,-0.1915,-0.1763,-0.1763,-0.1576,-0.154,-0.1524,-0.1437,-0.1377,-0.1225,-0.1196,-0.1058,-0.104,-0.1104,-0.1082,-0.1011,-0.1048,-0.0858,-0.0829,-0.0894,-0.0893,-0.0892,0,-0.2566,-0.2469,-0.2286,-0.2147,-0.2053,-0.1867,-0.1687,-0.1647,-0.1507,-0.1505,-0.138,-0.1354,-0.1304,-0.1156,-0.1081,-0.096,-0.0983,-0.0874,-0.0925,-0.0969,-0.0985,-0.1034,-0.1028,-0.0851,-0.085,-0.0849,-0.0848,0,-0.2262,-0.2244,-0.2081,-0.1841,-0.1653,-0.1443,-0.1253,-0.1158,-0.1137,-0.1095,-0.11,-0.1139,-0.1115,-0.1057,-0.0961,-0.0889,-0.0878,-0.0846,-0.0831,-0.0876,-0.0969,-0.0941,-0.1056,-0.0838,-0.0839,-0.0839,-0.084,-0.084,-0.1976,-0.1825,-0.1658,-0.1416,-0.1253,-0.1057,-0.0907,-0.0796,-0.068,-0.0665,-0.0803,-0.086,-0.101,-0.0918,-0.0843,-0.074,-0.0779,-0.0709,-0.0732,-0.0764,-0.078,-0.0907,-0.0699,-0.07,-0.07,-0.07,-0.07,0,-0.1513,-0.1414,-0.1203,-0.0977,-0.0805,-0.0803,-0.0603,-0.0525,-0.0441,-0.042,-0.0485,-0.0621,-0.068,-0.0752,-0.0725,-0.0655,-0.0642,-0.0625,-0.0678,-0.066,-0.0692,-0.0737,-0.06,-0.06,-0.06,-0.06,-0.06,-0.06,-0.1226,-0.0946,-0.0902,-0.0577,-0.0494,-0.0313,-0.0243,-0.0204,-0.0181,-0.016,-0.0191,-0.028,-0.0523,-0.0703,-0.0684,-0.0635,-0.0613,-0.061,-0.0592,-0.0633,-0.0643,-0.0653,-0.0699,-0.0557,-0.0557,-0.0552,-0.0552,-0.0553]},{"header":{"parameterUnit":"m.s-1","parameterCategory":2,"la1":30.2991,"la2":30.254,"lo1":-89.0895,"lo2":-89.0444,"dy":0.0017,"dx":0.0017,"nx":28,"ny":28,"refTime":"2025-11-17T03:00:00:Z","depth":"0","parameterNumber":3,"parameterNumberName":"V-component_of_CURRENTS"},"data":[0,0,0,0,0,0,0,0,0,0,0,0,0,0,0,0,0,0,0,0,0,0,0,0,0,0,0,0,0,0,0,0,0,0,0,0,0,0,0,0,0,0,0,0,0,0,0,0,0,0,0,0,0,0,0,0,0,0,0.1214,0.1215,0,0.1346,0.1348,0.1349,0.1449,0.145,0.145,0.1451,0.1573,0.1575,0.1578,0,0,0,0,0,0,0,0,0,0,0,0,0,0.1112,0.1113,0.1214,0.1215,0.1217,0.1346,0.1348,0.135,0.1449,0.145,0.145,0.1451,0.1572,0.1575,0.1578,0,0,0,0,0,0,0,0,0,0,0,0,0,0.1193,0.1113,0.1213,0.128,0.1287,0.1345,0.1348,0.135,0.1449,0.145,0.1451,0.1452,0.1571,0.1575,0.1579,0.1583,0,0,0.1591,0.1592,0,0,0,0,0,0,0,0,0.1188,0.1197,0.1268,0.1275,0.1283,0.138,0.1357,0.1427,0.1448,0.139,0.1451,0.1452,0.1505,0.1514,0.1541,0.1589,0.1594,0.1591,0.1594,0.1595,0.1596,0,0,0,0,0,0,0,0.1183,0.1192,0.1269,0.127,0.1279,0.1325,0.1337,0.1371,0.1442,0.1395,0.1402,0.1412,0.1509,0.1537,0.1544,0.1596,0.1591,0.1595,0.1597,0.1599,0.1621,0.1619,0,0,0,0,0,0,0.1157,0.1187,0.1265,0.1272,0.1234,0.1325,0.1339,0.135,0.1442,0.1456,0.1411,0.1416,0.153,0.154,0.1549,0.1494,0.1595,0.1599,0.1601,0.1623,0.1621,0.1619,0,0,0,0,0,0,0.1154,0.1162,0.1259,0.1231,0.1246,0.1325,0.1337,0.1352,0.1371,0.1454,0.1469,0.1413,0.1531,0.1543,0.1555,0.1502,0.1601,0.1604,0.1625,0.1622,0.162,0.1426,0,0,0,0,0,0,0.115,0.1161,0.1149,0.1229,0.1246,0.1255,0.1336,0.1354,0.1375,0.1383,0.146,0.1474,0.1533,0.1549,0.1559,0.1509,0.1607,0.1627,0.1624,0.1621,0.1435,0.1417,0.1402,0,0,0,0,0,0.1146,0.1115,0.1148,0.1157,0.1232,0.1252,0.1264,0.1327,0.1373,0.1354,0.1416,0.1471,0.1535,0.155,0.1563,0.1513,0.1629,0.1625,0.1621,0.1442,0.1421,0.1403,0,0,0,0,0,0,0.1046,0.1125,0.1162,0.1152,0.1185,0.1267,0.1258,0.131,0.1348,0.1358,0.1448,0.1463,0.146,0.1512,0.1527,0.1512,0.1591,0.1589,0.1451,0.1432,0.1416,0.144,0.1611,0,0,0,0,0,0.1022,0.1027,0.11,0.1082,0.1099,0.1179,0.1195,0.1238,0.1288,0.1307,0.136,0.1417,0.1455,0.1462,0.1509,0.149,0.1589,0.1468,0.1452,0.1438,0.1467,0.1585,0.1582,0.1606,0.1606,0.1606,0,0,0.0972,0.1018,0.1017,0.1062,0.1102,0.1095,0.119,0.1197,0.1191,0.1311,0.1304,0.1364,0.1442,0.1429,0.1431,0.1461,0.1468,0.1433,0.1419,0.1458,0.1581,0.1579,0.1577,0.1603,0.1604,0.1604,0,0,0.0873,0.0921,0.0895,0.092,0.0966,0.1014,0.1008,0.1074,0.1102,0.1105,0.1195,0.1228,0.1268,0.1318,0.1351,0.1274,0.1389,0.127,0.1192,0.1302,0.1303,0.1304,0.1365,0.1373,0.1248,0.1247,0.1247,0,0.0806,0.0805,0.088,0.0863,0.0879,0.0968,0.094,0.0968,0.1023,0.1056,0.1072,0.1185,0.1225,0.1259,0.1218,0.1237,0.1313,0.125,0.1283,0.1287,0.1292,0.1355,0.1367,0.1237,0.1239,0.124,0.1241,0,0.0697,0.0701,0.0681,0.0704,0.0717,0.0704,0.0765,0.0776,0.0826,0.0883,0.0932,0.1004,0.1092,0.1073,0.1115,0.1153,0.1197,0.1257,0.1331,0.1278,0.1346,0.1362,0.1223,0.1227,0.123,0.1232,0,0,0.0544,0.0599,0.0593,0.0626,0.0645,0.0673,0.0636,0.0679,0.0727,0.0748,0.0815,0.0838,0.093,0.0976,0.1036,0.1094,0.1141,0.1166,0.1177,0.1224,0.136,0.1251,0.126,0.1212,0.1215,0.1218,0.137,0,0.044,0.0424,0.0456,0.0442,0.0456,0.0523,0.0519,0.057,0.0625,0.0701,0.0783,0.0873,0.0876,0.0942,0.0988,0.115,0.1186,0.1093,0.141,0.1419,0.1329,0.1277,0.1217,0.1338,0.1387,0.139,0.1392,0,0.0319,0.0354,0.0331,0.0423,0.0435,0.0432,0.0518,0.0529,0.0625,0.0677,0.0752,0.0854,0.0944,0.0972,0.1173,0.1119,0.1215,0.1308,0.1318,0.1314,0.1343,0.1415,0.1368,0.1408,0.1419,0.1417,0.1415,0,0.0255,0.027,0.0282,0.0297,0.0384,0.0405,0.0455,0.0532,0.0629,0.0698,0.0794,0.0886,0.1013,0.1132,0.1269,0.1257,0.1497,0.1523,0.1501,0.1494,0.1559,0.1551,0.1598,0.1659,0.1658,0.1658,0.1657,0,0.0164,0.0182,0.0277,0.0302,0.0384,0.0418,0.0525,0.0564,0.0691,0.0838,0.0824,0.0955,0.1073,0.1211,0.1299,0.1433,0.1529,0.1491,0.1533,0.1476,0.146,0.1593,0.1624,0.1664,0.1662,0.1661,0.166,0,0.0122,0.0146,0.0218,0.0324,0.0371,0.0451,0.0641,0.0734,0.0797,0.0985,0.103,0.1096,0.1202,0.1277,0.148,0.1499,0.164,0.1641,0.1516,0.1538,0.1503,0.1524,0.1673,0.1728,0.165,0.1649,0.1647,0,0.0118,0.0136,0.0287,0.0371,0.0434,0.0571,0.0681,0.0792,0.0914,0.1091,0.1196,0.1284,0.133,0.1471,0.1477,0.1546,0.1622,0.156,0.1504,0.1479,0.154,0.1567,0.1606,0.1509,0.1507,0.1505,0.1503,0,0.0158,0.0202,0.0293,0.0467,0.0594,0.0751,0.0911,0.1028,0.117,0.1291,0.1443,0.1472,0.1473,0.1433,0.1401,0.1456,0.1556,0.1516,0.1581,0.1487,0.1446,0.1525,0.1397,0.1486,0.1487,0.1489,0.149,0.149,0.0242,0.0318,0.0444,0.0614,0.075,0.0907,0.1024,0.1164,0.1343,0.1495,0.1585,0.1587,0.1478,0.1356,0.1402,0.1367,0.143,0.1401,0.1447,0.149,0.1477,0.1243,0.1311,0.1311,0.1312,0.1313,0.1313,0,0.0387,0.0457,0.0597,0.0793,0.094,0.0989,0.1176,0.1258,0.1408,0.1504,0.1617,0.1581,0.1438,0.1352,0.125,0.1305,0.1384,0.1368,0.1442,0.1505,0.1386,0.1308,0.1269,0.1269,0.1269,0.1269,0.1269,0.1269,0.048,0.0621,0.068,0.0942,0.1056,0.1217,0.1299,0.1376,0.1438,0.1508,0.1515,0.1543,0.1425,0.1337,0.1316,0.1349,0.1495,0.1445,0.1574,0.1504,0.1512,0.152,0.1453,0.1445,0.1445,0.1684,0.1686,0.1688]}],[{"header":{"parameterUnit":"m.s-1","parameterCategory":2,"la1":30.2991,"la2":30.254,"lo1":-89.0895,"lo2":-89.0444,"dy":0.0017,"dx":0.0017,"nx":28,"ny":28,"refTime":"2025-11-17T03:00:00:Z","depth":"2","parameterNumber":2,"parameterNumberName":"U-component_of_CURRENTS"},"data":[0,0,0,0,0,0,0,0,0,0,0,0,0,0,0,0,0,0,0,0,0,0,0,0,0,0,0,0,0,0,0,0,0,0,0,0,0,0,0,0,0,0,0,0,0,0,0,0,0,0,0,0,0,0,0,0,0,0,-0.1981,-0.1984,0,-0.2228,-0.223,-0.2232,-0.2242,-0.224,-0.2237,-0.2235,-0.2336,-0.2341,-0.2346,0,0,0,0,0,0,0,0,0,0,0,0,0,-0.1763,-0.1765,-0.198,-0.1984,-0.1988,-0.2228,-0.223,-0.2233,-0.2242,-0.2239,-0.2237,-0.2234,-0.2335,-0.234,-0.2346,0,0,0,0,0,0,0,0,0,0,0,0,0,-0.1911,-0.1765,-0.198,-0.2027,-0.2034,-0.2227,-0.223,-0.2234,-0.2243,-0.2239,-0.2236,-0.2233,-0.2333,-0.234,-0.2347,-0.246,0,0,-0.2369,-0.2372,0,0,0,0,0,0,0,0,-0.1902,-0.1918,-0.2016,-0.2024,-0.2033,-0.2207,-0.2192,-0.2305,-0.2244,-0.2156,-0.2235,-0.2231,-0.2287,-0.2298,-0.2343,-0.2465,-0.2469,-0.237,-0.2374,-0.2377,-0.2379,0,0,0,0,0,0,0,-0.1891,-0.1909,-0.2071,-0.2021,-0.2031,-0.2121,-0.2135,-0.2214,-0.2229,-0.2163,-0.2166,-0.2207,-0.2289,-0.2337,-0.2345,-0.2471,-0.2369,-0.2376,-0.238,-0.2383,-0.2608,-0.2609,0,0,0,0,0,0,-0.1867,-0.1898,-0.2063,-0.2079,-0.1966,-0.2127,-0.2143,-0.2148,-0.2231,-0.2244,-0.221,-0.2207,-0.2326,-0.2337,-0.2349,-0.244,-0.2377,-0.2384,-0.2388,-0.2606,-0.2608,-0.261,0,0,0,0,0,0,-0.1861,-0.1878,-0.2053,-0.2002,-0.2031,-0.2134,-0.2141,-0.2155,-0.2218,-0.227,-0.2277,-0.2259,-0.2324,-0.2339,-0.2448,-0.2445,-0.2387,-0.2394,-0.2604,-0.2607,-0.2609,-0.2653,0,0,0,0,0,0,-0.1853,-0.1874,-0.1906,-0.1999,-0.2034,-0.216,-0.2146,-0.2163,-0.2251,-0.225,-0.2316,-0.232,-0.2322,-0.2437,-0.2455,-0.2454,-0.2399,-0.2602,-0.2605,-0.2608,-0.2649,-0.2656,-0.2662,0,0,0,0,0,-0.1844,-0.1888,-0.1905,-0.1928,-0.206,-0.2163,-0.2188,-0.2246,-0.2257,-0.2289,-0.2353,-0.2319,-0.2465,-0.2448,-0.2467,-0.2468,-0.2601,-0.2604,-0.2608,-0.2646,-0.2655,-0.2662,0,0,0,0,0,0,-0.1823,-0.1898,-0.1916,-0.1984,-0.2065,-0.2166,-0.222,-0.2273,-0.2358,-0.2361,-0.2391,-0.2403,-0.2477,-0.2492,-0.2471,-0.2537,-0.2508,-0.2516,-0.253,-0.2539,-0.2545,-0.2468,-0.2405,0,0,0,0,0,-0.1834,-0.1866,-0.1961,-0.2014,-0.2048,-0.2145,-0.221,-0.2254,-0.2335,-0.2369,-0.2411,-0.2457,-0.2513,-0.2543,-0.2585,-0.267,-0.2601,-0.2666,-0.2673,-0.2678,-0.2628,-0.2528,-0.2519,-0.2622,-0.2622,-0.2622,0,0,-0.1846,-0.189,-0.1915,-0.2012,-0.2069,-0.2142,-0.217,-0.2266,-0.2337,-0.2371,-0.2462,-0.2498,-0.2545,-0.2609,-0.2639,-0.262,-0.263,-0.2683,-0.2687,-0.2633,-0.253,-0.2519,-0.251,-0.2624,-0.2624,-0.2623,0,0,-0.188,-0.191,-0.1955,-0.2,-0.2103,-0.2172,-0.2203,-0.2311,-0.2359,-0.2493,-0.2498,-0.2531,-0.266,-0.2643,-0.2669,-0.2748,-0.2671,-0.2766,-0.2739,-0.2645,-0.2634,-0.2623,-0.258,-0.2564,-0.2765,-0.2765,-0.2765,0,-0.1897,-0.1939,-0.1993,-0.2032,-0.2076,-0.2178,-0.2239,-0.2326,-0.246,-0.2498,-0.2517,-0.2618,-0.2656,-0.2685,-0.2701,-0.2752,-0.2704,-0.271,-0.2647,-0.2634,-0.2622,-0.258,-0.2562,-0.2767,-0.2767,-0.2767,-0.2767,0,-0.1931,-0.1982,-0.2001,-0.2068,-0.2144,-0.2196,-0.231,-0.2395,-0.2481,-0.2546,-0.2607,-0.2649,-0.267,-0.2702,-0.2743,-0.2679,-0.268,-0.2668,-0.2613,-0.2613,-0.2572,-0.2552,-0.2771,-0.277,-0.2769,-0.2769,0,0,-0.192,-0.2007,-0.2018,-0.2053,-0.2147,-0.222,-0.2332,-0.2451,-0.2501,-0.2597,-0.2613,-0.2697,-0.266,-0.2679,-0.2686,-0.262,-0.2533,-0.2609,-0.2603,-0.2543,-0.2351,-0.2244,-0.2213,-0.2505,-0.2501,-0.2497,-0.2377,0,-0.1926,-0.1994,-0.2049,-0.2142,-0.2186,-0.2275,-0.2353,-0.2472,-0.2566,-0.2602,-0.2622,-0.2637,-0.2672,-0.2652,-0.2593,-0.2547,-0.2473,-0.2567,-0.2378,-0.2373,-0.2255,-0.2182,-0.2065,-0.1935,-0.2357,-0.2354,-0.2352,0,-0.1927,-0.1982,-0.2047,-0.2154,-0.2178,-0.2264,-0.2379,-0.2463,-0.2539,-0.2579,-0.2575,-0.2571,-0.2512,-0.2513,-0.2386,-0.2447,-0.238,-0.234,-0.2334,-0.218,-0.2223,-0.1994,-0.1883,-0.2318,-0.232,-0.2323,-0.2325,0,-0.186,-0.1985,-0.2033,-0.205,-0.2183,-0.226,-0.2358,-0.2463,-0.2501,-0.2529,-0.2506,-0.2465,-0.2405,-0.2317,-0.2266,-0.2303,-0.2106,-0.2146,-0.1986,-0.1982,-0.1809,-0.1794,-0.1985,-0.1985,-0.1985,-0.1985,-0.1986,0,-0.1791,-0.1848,-0.2022,-0.2027,-0.2117,-0.2236,-0.2316,-0.239,-0.2436,-0.242,-0.2451,-0.2374,-0.2337,-0.225,-0.2208,-0.2031,-0.205,-0.1925,-0.1904,-0.1833,-0.1822,-0.2089,-0.2103,-0.1981,-0.1982,-0.1983,-0.1984,0,-0.1688,-0.1764,-0.1846,-0.2014,-0.2072,-0.2145,-0.2293,-0.2322,-0.2377,-0.2339,-0.2316,-0.2277,-0.213,-0.2102,-0.1955,-0.1923,-0.1795,-0.1726,-0.1674,-0.1644,-0.1759,-0.1778,-0.1509,-0.1503,-0.1498,-0.1494,-0.1491,0,-0.1626,-0.1648,-0.1818,-0.1856,-0.1941,-0.2077,-0.2129,-0.2261,-0.2291,-0.2259,-0.2203,-0.2069,-0.1911,-0.1704,-0.1609,-0.1471,-0.1598,-0.1327,-0.1338,-0.1683,-0.1692,-0.1718,-0.1742,-0.1175,-0.117,-0.1165,-0.1161,0,-0.1519,-0.1581,-0.1641,-0.1731,-0.1816,-0.1906,-0.2031,-0.202,-0.2113,-0.205,-0.1918,-0.1775,-0.1573,-0.1339,-0.1202,-0.1135,-0.1345,-0.1222,-0.1532,-0.1311,-0.1356,-0.1371,-0.1407,-0.112,-0.1124,-0.1127,-0.1129,-0.1131,-0.1441,-0.1448,-0.1521,-0.1602,-0.1685,-0.1723,-0.1706,-0.1779,-0.1724,-0.1583,-0.1606,-0.1357,-0.1304,-0.0946,-0.087,-0.0853,-0.0938,-0.0951,-0.0971,-0.0994,-0.0973,-0.1005,-0.0704,-0.0705,-0.0707,-0.0708,-0.0709,0,-0.1345,-0.1359,-0.1392,-0.1446,-0.1457,-0.1594,-0.1606,-0.1518,-0.1363,-0.1281,-0.1132,-0.0914,-0.0706,-0.0685,-0.0555,-0.0522,-0.058,-0.0536,-0.0633,-0.0671,-0.0706,-0.0677,-0.0326,-0.0325,-0.0324,-0.0324,0,0,-0.1279,-0.1252,-0.1259,-0.1227,-0.1272,-0.1221,-0.1184,-0.104,-0.0958,-0.0734,-0.0631,-0.0594,-0.0614,-0.0461,-0.0424,-0.0352,-0.0516,-0.0332,-0.0632,-0.078,-0.0814,-0.0925,-0.0919,0,0,0,0,0]},{"header":{"parameterUnit":"m.s-1","parameterCategory":2,"la1":30.2991,"la2":30.254,"lo1":-89.0895,"lo2":-89.0444,"dy":0.0017,"dx":0.0017,"nx":28,"ny":28,"refTime":"2025-11-17T03:00:00:Z","depth":"2","parameterNumber":3,"parameterNumberName":"V-component_of_CURRENTS"},"data":[0,0,0,0,0,0,0,0,0,0,0,0,0,0,0,0,0,0,0,0,0,0,0,0,0,0,0,0,0,0,0,0,0,0,0,0,0,0,0,0,0,0,0,0,0,0,0,0,0,0,0,0,0,0,0,0,0,0,-0.1146,-0.1145,0,-0.1001,-0.0999,-0.0996,-0.0917,-0.0918,-0.0918,-0.0919,-0.0596,-0.0587,-0.0578,0,0,0,0,0,0,0,0,0,0,0,0,0,-0.1133,-0.1134,-0.1146,-0.1145,-0.1144,-0.1001,-0.0998,-0.0996,-0.0917,-0.0918,-0.0919,-0.0919,-0.0599,-0.0588,-0.0577,0,0,0,0,0,0,0,0,0,0,0,0,0,-0.107,-0.1135,-0.1146,-0.1094,-0.1088,-0.1002,-0.0998,-0.0995,-0.0917,-0.0918,-0.0919,-0.092,-0.0602,-0.0589,-0.0575,-0.0472,0,0,-0.0533,-0.0527,0,0,0,0,0,0,0,0,-0.1074,-0.107,-0.1102,-0.1097,-0.1091,-0.0986,-0.0876,-0.0814,-0.0917,-0.0973,-0.0919,-0.092,-0.0715,-0.0692,-0.0652,-0.0457,-0.0443,-0.0532,-0.0524,-0.0518,-0.0514,0,0,0,0,0,0,0,-0.1079,-0.1075,-0.1079,-0.1102,-0.1095,-0.1003,-0.0996,-0.0863,-0.083,-0.0968,-0.0964,-0.0962,-0.0709,-0.0666,-0.0644,-0.0438,-0.0533,-0.052,-0.0512,-0.0506,0.0006,0.0011,0,0,0,0,0,0,-0.1126,-0.108,-0.1084,-0.1076,-0.1095,-0.1004,-0.0996,-0.1011,-0.0835,-0.0813,-0.0961,-0.0959,-0.0689,-0.066,-0.0632,-0.0402,-0.0518,-0.0505,-0.0497,0.0,0.0007,0.0013,0,0,0,0,0,0,-0.1126,-0.1128,-0.109,-0.108,-0.107,-0.1006,-0.1022,-0.1008,-0.0956,-0.0834,-0.0807,-0.0924,-0.0689,-0.0651,-0.0472,-0.0393,-0.0499,-0.0486,-0.0006,0.0002,0.001,-0.0003,0,0,0,0,0,0,-0.1127,-0.113,-0.1128,-0.1085,-0.1073,-0.1029,-0.1022,-0.1005,-0.0958,-0.0953,-0.0792,-0.0764,-0.0687,-0.0493,-0.0458,-0.0376,-0.0476,-0.0013,-0.0002,0.0007,-0.0009,0.0004,0.0015,0,0,0,0,0,-0.1127,-0.1121,-0.1129,-0.1128,-0.1084,-0.1029,-0.1012,-0.0962,-0.0956,-0.0919,-0.0793,-0.0769,-0.0404,-0.0477,-0.0438,-0.035,-0.0018,-0.0005,0.0006,-0.0015,0.0001,0.0014,0,0,0,0,0,0,-0.1114,-0.1113,-0.112,-0.1116,-0.1078,-0.1019,-0.0994,-0.0955,-0.083,-0.0816,-0.0703,-0.0662,-0.0476,-0.0397,-0.0481,-0.0165,-0.0204,-0.0184,-0.0233,-0.0217,-0.0206,-0.0248,-0.0464,0,0,0,0,0,-0.1118,-0.1115,-0.1098,-0.1093,-0.1093,-0.1042,-0.1008,-0.0968,-0.0874,-0.0823,-0.0713,-0.0563,-0.0393,-0.0301,-0.016,0.0013,0.0012,0.0103,0.0114,0.0123,0.0123,0.017,0.0182,0.0052,0.0052,0.0052,0,0,-0.112,-0.1113,-0.1115,-0.1088,-0.1073,-0.1046,-0.1022,-0.0974,-0.0908,-0.08,-0.0665,-0.0523,-0.0338,-0.0146,-0.0054,-0.0072,0.0164,0.0139,0.0144,0.0139,0.0183,0.0194,0.0204,0.006,0.0059,0.0057,0,0,-0.1108,-0.1124,-0.1116,-0.109,-0.1056,-0.1027,-0.1017,-0.0947,-0.0879,-0.0724,-0.0616,-0.043,-0.0204,-0.0048,0.0062,0.0234,0.0217,0.0291,0.0328,0.0373,0.0381,0.0389,0.0385,0.0393,0.0305,0.0305,0.0305,0,-0.1107,-0.1105,-0.1097,-0.1077,-0.106,-0.103,-0.1004,-0.0925,-0.0783,-0.0689,-0.0682,-0.0299,-0.0154,0.0111,0.0186,0.0257,0.025,0.0243,0.0377,0.0385,0.0392,0.0388,0.0395,0.0306,0.0305,0.0305,0.0305,0,-0.1103,-0.1083,-0.1084,-0.1067,-0.103,-0.1006,-0.0937,-0.0854,-0.0777,-0.0667,-0.0414,-0.0215,0.0017,0.011,0.0212,0.0392,0.0357,0.0365,0.0308,0.0402,0.0395,0.0402,0.0307,0.0306,0.0306,0.0306,0,0,-0.1126,-0.1094,-0.1081,-0.1069,-0.1024,-0.0993,-0.0894,-0.0769,-0.0666,-0.0503,-0.0352,-0.0027,0.0075,0.021,0.0358,0.0427,0.0491,0.0423,0.0425,0.0361,0.0541,0.0413,0.0409,0.0495,0.0497,0.0499,0.0503,0,-0.1124,-0.1102,-0.1063,-0.1017,-0.1018,-0.0947,-0.0854,-0.0714,-0.0575,-0.0419,-0.0198,0.001,0.0115,0.0244,0.0335,0.0458,0.0515,0.0486,0.0512,0.0512,0.0338,0.0417,0.0429,0.0425,0.0511,0.0512,0.0513,0,-0.1113,-0.1103,-0.1082,-0.0998,-0.0991,-0.0939,-0.0793,-0.0684,-0.0454,-0.0329,-0.0109,0.0032,0.0251,0.0271,0.0474,0.0438,0.0502,0.0553,0.0554,0.0441,0.04,0.0358,0.0435,0.0526,0.0525,0.0524,0.0523,0,-0.1141,-0.1086,-0.1078,-0.1064,-0.0984,-0.0916,-0.0842,-0.0635,-0.0514,-0.0268,-0.018,0.0076,0.0184,0.0306,0.0436,0.0458,0.0549,0.059,0.053,0.0519,0.0541,0.0528,0.0695,0.0695,0.0695,0.0695,0.0695,0,-0.1144,-0.112,-0.1089,-0.1085,-0.1031,-0.0936,-0.0808,-0.0673,-0.0473,-0.0342,-0.0132,-0.0039,0.0186,0.0271,0.0394,0.0454,0.0518,0.0536,0.0522,0.0538,0.0525,0.0631,0.0623,0.0695,0.0695,0.0695,0.0695,0,-0.1151,-0.1147,-0.113,-0.1068,-0.1048,-0.0991,-0.0844,-0.0745,-0.0544,-0.0391,-0.0327,-0.0129,-0.0035,0.0132,0.0294,0.0372,0.0463,0.0466,0.0436,0.0418,0.0418,0.0411,0.0427,0.0423,0.0419,0.0416,0.0414,0,-0.1156,-0.1158,-0.1144,-0.1148,-0.1118,-0.1036,-0.0991,-0.0795,-0.0686,-0.0468,-0.0425,-0.03,-0.0223,-0.0074,0.0093,0.0241,0.0317,0.0315,0.0388,0.041,0.0396,0.0395,0.0393,0.0425,0.0423,0.0421,0.0419,0,-0.1156,-0.1159,-0.1155,-0.1184,-0.1166,-0.1129,-0.103,-0.0976,-0.076,-0.0672,-0.0578,-0.0517,-0.0359,-0.0209,-0.0037,0.0067,0.0298,0.0275,0.0343,0.0456,0.04,0.0387,0.0389,0.0403,0.0405,0.0406,0.0407,0.0407,-0.1149,-0.1154,-0.1171,-0.1183,-0.1197,-0.1188,-0.1129,-0.1054,-0.0958,-0.0762,-0.0754,-0.0621,-0.0439,-0.0201,-0.0059,0.0112,0.0116,0.0229,0.024,0.0252,0.0216,0.0153,0.0102,0.0102,0.0102,0.0102,0.0102,0,-0.1131,-0.1147,-0.1167,-0.1178,-0.1193,-0.1197,-0.1135,-0.1049,-0.0982,-0.0867,-0.0775,-0.0587,-0.0433,-0.0216,0.002,0.0123,0.0213,0.0167,0.0297,0.0309,0.032,0.0295,0.0199,0.02,0.0201,0.0202,0,0,-0.1117,-0.1126,-0.1136,-0.1154,-0.1173,-0.1144,-0.1111,-0.1022,-0.0897,-0.0799,-0.0687,-0.0597,-0.0387,-0.0194,-0.0042,0.0102,0.0193,0.0124,0.0029,0.0177,0.0189,0.0327,0.0293,0,0,0,0,0]}],[{"header":{"parameterUnit":"m.s-1","parameterCategory":2,"la1":30.2991,"la2":30.254,"lo1":-89.0895,"lo2":-89.0444,"dy":0.0017,"dx":0.0017,"nx":28,"ny":28,"refTime":"2025-11-17T03:00:00:Z","depth":"4","parameterNumber":2,"parameterNumberName":"U-component_of_CURRENTS"},"data":[0,0,0,0,0,0,0,0,0,0,0,0,0,0,0,0,0,0,0,0,0,0,0,0,0,0,0,0,0,0,0,0,0,0,0,0,0,0,0,0,0,0,0,0,0,0,0,0,0,0,0,0,0,0,0,0,0,0,-0.0802,-0.0802,0,-0.085,-0.0851,-0.0852,-0.0925,-0.0926,-0.0927,-0.0927,-0.1005,-0.1007,-0.1008,0,0,0,0,0,0,0,0,0,0,0,0,0,-0.0799,-0.0799,-0.0802,-0.0802,-0.0802,-0.0849,-0.0851,-0.0852,-0.0925,-0.0926,-0.0927,-0.0927,-0.1005,-0.1007,-0.1008,0,0,0,0,0,0,0,0,0,0,0,0,0,-0.0825,-0.0799,-0.0802,-0.0839,-0.0842,-0.0849,-0.0851,-0.0853,-0.0925,-0.0926,-0.0927,-0.0928,-0.1004,-0.1006,-0.1009,-0.1002,0,0,-0.1015,-0.1016,0,0,0,0,0,0,0,0,-0.0824,-0.0826,-0.0833,-0.0836,-0.084,-0.0876,-0.0878,-0.0902,-0.0925,-0.0901,-0.0927,-0.0928,-0.096,-0.0966,-0.0982,-0.1006,-0.1009,-0.1015,-0.1017,-0.1018,-0.1018,0,0,0,0,0,0,0,-0.0822,-0.0825,-0.0828,-0.0833,-0.0837,-0.0861,-0.0867,-0.0883,-0.093,-0.0903,-0.0907,-0.0901,-0.0963,-0.098,-0.0984,-0.101,-0.1015,-0.1017,-0.1019,-0.102,-0.1103,-0.1104,0,0,0,0,0,0,-0.0799,-0.0823,-0.0826,-0.0829,-0.0826,-0.086,-0.0866,-0.0869,-0.0929,-0.0937,-0.09,-0.0904,-0.0975,-0.0982,-0.0987,-0.1046,-0.1018,-0.102,-0.1021,-0.1102,-0.1104,-0.1105,0,0,0,0,0,0,-0.0799,-0.0799,-0.0824,-0.0821,-0.0825,-0.0858,-0.0861,-0.087,-0.0908,-0.0925,-0.0935,-0.093,-0.0976,-0.0984,-0.1025,-0.1047,-0.1021,-0.1023,-0.1101,-0.1103,-0.1104,-0.1124,0,0,0,0,0,0,-0.0799,-0.08,-0.0814,-0.0819,-0.0824,-0.0847,-0.086,-0.087,-0.0897,-0.0904,-0.0954,-0.0961,-0.0978,-0.1022,-0.1027,-0.105,-0.1024,-0.11,-0.1102,-0.1104,-0.1122,-0.1125,-0.1129,0,0,0,0,0,-0.0799,-0.0808,-0.0815,-0.0815,-0.0836,-0.0846,-0.0853,-0.0884,-0.0898,-0.0922,-0.0954,-0.0961,-0.1037,-0.1024,-0.1031,-0.1054,-0.1099,-0.1102,-0.1104,-0.112,-0.1125,-0.1129,0,0,0,0,0,0,-0.0808,-0.0815,-0.0823,-0.0833,-0.0845,-0.0857,-0.0874,-0.0891,-0.0936,-0.0951,-0.0971,-0.0981,-0.1027,-0.1035,-0.1021,-0.1084,-0.1069,-0.1073,-0.108,-0.1084,-0.1088,-0.1086,-0.1026,0,0,0,0,0,-0.0813,-0.0831,-0.0832,-0.0843,-0.0845,-0.0863,-0.0876,-0.0899,-0.0924,-0.0947,-0.0976,-0.1008,-0.1036,-0.1056,-0.1084,-0.1113,-0.1105,-0.1133,-0.1137,-0.1139,-0.1142,-0.116,-0.1165,-0.1111,-0.1111,-0.1111,0,0,-0.0816,-0.0823,-0.0833,-0.0847,-0.0857,-0.0868,-0.0877,-0.0902,-0.0927,-0.0945,-0.0998,-0.1024,-0.1047,-0.1089,-0.1109,-0.1101,-0.1145,-0.1142,-0.1144,-0.1146,-0.1163,-0.1168,-0.1173,-0.1113,-0.1112,-0.1112,0,0,-0.0817,-0.0837,-0.0847,-0.0861,-0.0878,-0.089,-0.0898,-0.0924,-0.0956,-0.1,-0.1019,-0.1053,-0.1102,-0.1118,-0.1131,-0.1165,-0.1164,-0.1184,-0.12,-0.1218,-0.1222,-0.1226,-0.1195,-0.1196,-0.1185,-0.1185,-0.1185,0,-0.0815,-0.0834,-0.0851,-0.0861,-0.0874,-0.0897,-0.091,-0.0939,-0.0984,-0.1002,-0.1024,-0.1092,-0.1112,-0.1144,-0.1166,-0.1172,-0.1174,-0.1182,-0.1222,-0.1226,-0.1229,-0.1196,-0.1197,-0.1186,-0.1186,-0.1186,-0.1186,0,-0.0818,-0.0843,-0.0847,-0.087,-0.089,-0.091,-0.0935,-0.0968,-0.1005,-0.1032,-0.1088,-0.1123,-0.1158,-0.1175,-0.1187,-0.1224,-0.1212,-0.1224,-0.1209,-0.1236,-0.1199,-0.1199,-0.1188,-0.1187,-0.1187,-0.1187,0,0,-0.0786,-0.0837,-0.0843,-0.0862,-0.0904,-0.0915,-0.0951,-0.0982,-0.0999,-0.1066,-0.1089,-0.1155,-0.1179,-0.1196,-0.1216,-0.124,-0.1257,-0.1254,-0.1254,-0.1216,-0.1272,-0.117,-0.116,-0.1291,-0.1292,-0.1293,-0.1225,0,-0.0782,-0.0802,-0.084,-0.0874,-0.0884,-0.0925,-0.0956,-0.0995,-0.1028,-0.1058,-0.1106,-0.1142,-0.1186,-0.1205,-0.1242,-0.1255,-0.1265,-0.1272,-0.1257,-0.1255,-0.1158,-0.116,-0.1296,-0.1226,-0.1226,-0.1226,-0.1226,0,-0.0773,-0.0793,-0.0819,-0.0877,-0.0886,-0.0914,-0.0954,-0.0991,-0.1031,-0.1059,-0.1105,-0.1133,-0.1178,-0.1209,-0.1257,-0.1268,-0.1277,-0.1285,-0.1282,-0.1183,-0.1155,-0.1201,-0.1226,-0.1226,-0.1226,-0.1226,-0.1226,0,-0.0736,-0.0784,-0.0808,-0.0827,-0.0886,-0.0911,-0.0948,-0.0989,-0.1009,-0.1052,-0.1056,-0.1124,-0.114,-0.1195,-0.1221,-0.1249,-0.125,-0.1276,-0.1182,-0.1173,-0.1277,-0.1274,-0.1301,-0.1301,-0.1301,-0.1301,-0.1302,0,-0.0715,-0.0737,-0.0793,-0.0808,-0.0839,-0.0896,-0.0925,-0.0962,-0.0996,-0.1,-0.1061,-0.1055,-0.1147,-0.1155,-0.12,-0.1177,-0.123,-0.1175,-0.1156,-0.1282,-0.1281,-0.1275,-0.1273,-0.1299,-0.1299,-0.13,-0.13,0,-0.067,-0.0708,-0.074,-0.0804,-0.0823,-0.0849,-0.0903,-0.0913,-0.0958,-0.0954,-0.0964,-0.0999,-0.1008,-0.1059,-0.1103,-0.111,-0.1116,-0.1092,-0.1178,-0.1166,-0.103,-0.103,-0.0978,-0.0974,-0.0971,-0.0968,-0.0966,0,-0.0644,-0.0657,-0.0723,-0.0737,-0.0768,-0.0808,-0.0828,-0.0888,-0.0883,-0.0904,-0.0885,-0.0889,-0.0909,-0.0873,-0.0954,-0.0984,-0.0998,-0.0979,-0.1056,-0.1013,-0.1,-0.1006,-0.101,-0.096,-0.096,-0.0959,-0.0958,0,-0.0603,-0.0637,-0.0659,-0.0681,-0.0707,-0.0725,-0.0751,-0.0738,-0.0789,-0.0825,-0.0778,-0.0776,-0.0761,-0.08,-0.0808,-0.085,-0.0989,-0.0944,-0.0953,-0.1025,-0.0991,-0.0983,-0.0991,-0.0946,-0.0948,-0.0949,-0.0949,0,-0.0575,-0.0574,-0.0606,-0.0616,-0.0635,-0.0626,-0.066,-0.0649,-0.0657,-0.0686,-0.066,-0.0689,-0.0723,-0.0724,-0.0745,-0.0759,-0.0781,-0.0792,-0.0809,-0.0823,-0.0812,-0.0748,-0.0602,0,0,0,0,0,-0.0545,-0.053,-0.0536,-0.0535,-0.0544,-0.0557,-0.0592,-0.0624,-0.066,-0.0605,-0.0632,-0.0619,-0.0625,-0.0644,-0.0635,-0.07,-0.0795,-0.0687,-0.0819,-0.088,-0.0894,-0.0901,0,0,0,0,0,0,-0.0523,-0.0525,-0.0513,-0.0454,-0.0435,-0.0437,-0.0463,-0.0501,-0.0475,-0.0521,-0.0529,-0.0569,-0.0591,-0.0609,-0.0611,-0.0622,-0.0693,-0.0716,-0.0715,-0.0873,-0.0885,-0.0896,-0.0908,0,0,0,0,0]},{"header":{"parameterUnit":"m.s-1","parameterCategory":2,"la1":30.2991,"la2":30.254,"lo1":-89.0895,"lo2":-89.0444,"dy":0.0017,"dx":0.0017,"nx":28,"ny":28,"refTime":"2025-11-17T03:00:00:Z","depth":"4","parameterNumber":3,"parameterNumberName":"V-component_of_CURRENTS"},"data":[0,0,0,0,0,0,0,0,0,0,0,0,0,0,0,0,0,0,0,0,0,0,0,0,0,0,0,0,0,0,0,0,0,0,0,0,0,0,0,0,0,0,0,0,0,0,0,0,0,0,0,0,0,0,0,0,0,0,-0.0751,-0.0751,0,-0.0755,-0.0755,-0.0755,-0.0758,-0.0758,-0.0758,-0.0758,-0.0748,-0.0747,-0.0747,0,0,0,0,0,0,0,0,0,0,0,0,0,-0.0703,-0.0704,-0.0751,-0.0751,-0.0751,-0.0755,-0.0755,-0.0755,-0.0758,-0.0758,-0.0758,-0.0758,-0.0748,-0.0747,-0.0747,0,0,0,0,0,0,0,0,0,0,0,0,0,-0.0717,-0.0705,-0.0751,-0.0753,-0.0754,-0.0755,-0.0755,-0.0755,-0.0758,-0.0758,-0.0758,-0.0758,-0.0748,-0.0747,-0.0747,-0.0743,0,0,-0.0746,-0.0745,0,0,0,0,0,0,0,0,-0.0717,-0.0719,-0.0753,-0.0753,-0.0754,-0.0756,-0.0734,-0.075,-0.0758,-0.0756,-0.0758,-0.0758,-0.0749,-0.0749,-0.0749,-0.0742,-0.0742,-0.0746,-0.0745,-0.0745,-0.0745,0,0,0,0,0,0,0,-0.0716,-0.0719,-0.0753,-0.0753,-0.0753,-0.0739,-0.0742,-0.0737,-0.0752,-0.0756,-0.0757,-0.0757,-0.0749,-0.075,-0.0749,-0.0742,-0.0746,-0.0745,-0.0745,-0.0745,-0.0752,-0.0753,0,0,0,0,0,0,-0.0718,-0.0718,-0.0752,-0.0753,-0.0735,-0.074,-0.0743,-0.0755,-0.0752,-0.0752,-0.0757,-0.0757,-0.075,-0.075,-0.0749,-0.0766,-0.0745,-0.0745,-0.0744,-0.0752,-0.0752,-0.0753,0,0,0,0,0,0,-0.0717,-0.0721,-0.0752,-0.0735,-0.0738,-0.0741,-0.0755,-0.0755,-0.0768,-0.0753,-0.0753,-0.0771,-0.0751,-0.0749,-0.0757,-0.0765,-0.0744,-0.0744,-0.0751,-0.0752,-0.0752,-0.0786,0,0,0,0,0,0,-0.0716,-0.0721,-0.0735,-0.0735,-0.0739,-0.0759,-0.0755,-0.0755,-0.0768,-0.0768,-0.0765,-0.0763,-0.075,-0.0758,-0.0756,-0.0764,-0.0744,-0.075,-0.0751,-0.0752,-0.0784,-0.0788,-0.0791,0,0,0,0,0,-0.0714,-0.0729,-0.0736,-0.0741,-0.0757,-0.076,-0.076,-0.0762,-0.0769,-0.0775,-0.0776,-0.0764,-0.0762,-0.0758,-0.0756,-0.0763,-0.075,-0.0751,-0.0752,-0.0783,-0.0787,-0.079,0,0,0,0,0,0,-0.0713,-0.073,-0.0739,-0.0758,-0.0763,-0.076,-0.0768,-0.0772,-0.0778,-0.0786,-0.0772,-0.0771,-0.0781,-0.0769,-0.0764,-0.0768,-0.0753,-0.0754,-0.0777,-0.0781,-0.0784,-0.0779,-0.0743,0,0,0,0,0,-0.0721,-0.074,-0.0747,-0.0765,-0.0769,-0.0773,-0.0778,-0.0782,-0.0785,-0.0789,-0.0788,-0.0785,-0.0782,-0.078,-0.0777,-0.0779,-0.0761,-0.0782,-0.0785,-0.0788,-0.0783,-0.077,-0.0771,-0.0756,-0.0756,-0.0756,0,0,-0.0726,-0.0738,-0.0749,-0.0766,-0.0772,-0.0775,-0.0776,-0.079,-0.0793,-0.0786,-0.0798,-0.0802,-0.0787,-0.0791,-0.0794,-0.0782,-0.0783,-0.0789,-0.0792,-0.0785,-0.0771,-0.0772,-0.0774,-0.0757,-0.0757,-0.0757,0,0,-0.0731,-0.0757,-0.0768,-0.0775,-0.0789,-0.0789,-0.0797,-0.0807,-0.0813,-0.0825,-0.0821,-0.0829,-0.0828,-0.0815,-0.0808,-0.0827,-0.0806,-0.0831,-0.0838,-0.0826,-0.0826,-0.0827,-0.0808,-0.0806,-0.0827,-0.0827,-0.0827,0,-0.0737,-0.0751,-0.0769,-0.0777,-0.0782,-0.0797,-0.0801,-0.0808,-0.082,-0.0826,-0.0834,-0.0841,-0.0834,-0.0827,-0.0835,-0.0833,-0.0823,-0.0825,-0.0829,-0.083,-0.0829,-0.0809,-0.0807,-0.0829,-0.0829,-0.0829,-0.0828,0,-0.0743,-0.0756,-0.0763,-0.0779,-0.0787,-0.0797,-0.0806,-0.0822,-0.0838,-0.0844,-0.086,-0.0858,-0.0858,-0.086,-0.0853,-0.0851,-0.0844,-0.084,-0.0819,-0.0833,-0.0811,-0.0808,-0.0831,-0.0831,-0.083,-0.083,0,0,-0.0746,-0.0764,-0.0767,-0.0774,-0.0791,-0.0801,-0.081,-0.082,-0.0834,-0.0853,-0.0864,-0.0866,-0.0878,-0.087,-0.0867,-0.0857,-0.0852,-0.0853,-0.0851,-0.0832,-0.0823,-0.0742,-0.0731,-0.0854,-0.0854,-0.0854,-0.0808,0,-0.0742,-0.0755,-0.0763,-0.0775,-0.0781,-0.0799,-0.0804,-0.0823,-0.084,-0.0858,-0.0864,-0.0877,-0.0875,-0.0886,-0.0876,-0.0866,-0.0846,-0.0864,-0.0813,-0.0811,-0.0736,-0.0725,-0.0853,-0.0806,-0.0805,-0.0805,-0.0804,0,-0.0737,-0.0749,-0.0759,-0.0776,-0.0781,-0.0795,-0.0821,-0.0827,-0.0849,-0.0864,-0.088,-0.0891,-0.0889,-0.0888,-0.086,-0.0876,-0.0848,-0.0833,-0.0831,-0.0739,-0.0724,-0.0788,-0.0799,-0.0799,-0.08,-0.08,-0.08,0,-0.0728,-0.0743,-0.0753,-0.0761,-0.0783,-0.08,-0.0815,-0.0838,-0.0849,-0.0874,-0.0893,-0.0893,-0.0902,-0.0876,-0.0845,-0.0859,-0.0805,-0.0816,-0.071,-0.0704,-0.0778,-0.0778,-0.0778,-0.0778,-0.0779,-0.0779,-0.0779,0,-0.071,-0.0722,-0.0759,-0.0768,-0.0793,-0.0807,-0.0835,-0.0849,-0.0871,-0.0885,-0.0899,-0.0907,-0.0902,-0.0876,-0.0843,-0.0758,-0.0797,-0.07,-0.0682,-0.0794,-0.0796,-0.0776,-0.0777,-0.0777,-0.0777,-0.0778,-0.0778,0,-0.0687,-0.0707,-0.0728,-0.0768,-0.0789,-0.0809,-0.0855,-0.0868,-0.0889,-0.0909,-0.0919,-0.0924,-0.0879,-0.0843,-0.0795,-0.0744,-0.0679,-0.0633,-0.0744,-0.0736,-0.0591,-0.0594,-0.052,-0.0516,-0.0514,-0.0511,-0.0509,0,-0.0669,-0.0681,-0.0738,-0.0757,-0.078,-0.0821,-0.0843,-0.0877,-0.0888,-0.0912,-0.0912,-0.0889,-0.0877,-0.0744,-0.0706,-0.0605,-0.0586,-0.0552,-0.0579,-0.0571,-0.0562,-0.0569,-0.0576,-0.0505,-0.0504,-0.0503,-0.0502,0,-0.0641,-0.0672,-0.0691,-0.0739,-0.0776,-0.0811,-0.0848,-0.0859,-0.0885,-0.0915,-0.089,-0.0841,-0.0774,-0.0705,-0.061,-0.0547,-0.058,-0.0522,-0.0528,-0.0554,-0.0552,-0.0547,-0.0557,-0.0493,-0.0494,-0.0495,-0.0495,0,-0.0625,-0.0634,-0.0671,-0.0708,-0.0752,-0.078,-0.0811,-0.0822,-0.0839,-0.0863,-0.0855,-0.0809,-0.0802,-0.0671,-0.0595,-0.0508,-0.0495,-0.048,-0.0489,-0.0499,-0.0501,-0.0497,-0.0393,0,0,0,0,0,-0.0602,-0.0611,-0.0638,-0.0679,-0.0719,-0.0753,-0.0796,-0.0821,-0.0862,-0.083,-0.084,-0.0775,-0.0659,-0.0627,-0.0521,-0.0537,-0.0477,-0.0408,-0.0463,-0.0438,-0.0449,-0.0447,0,0,0,0,0,0,-0.0587,-0.0608,-0.0622,-0.0645,-0.067,-0.0717,-0.0747,-0.0778,-0.0759,-0.0792,-0.0731,-0.0734,-0.0621,-0.0714,-0.0515,-0.0494,-0.0509,-0.0371,-0.0368,-0.0431,-0.0442,-0.0451,-0.0452,0,0,0,0,0]}]]